Probability
0 0 0 0 0 0 0 1 2 2 2 1 0 0 0 0 0 0 0 0 0 0 0 0 0 0 0 0 0 0 0 0 0 0 0 0 0 0 0 0 0 0 0
0 0 0 0 0 0 0 0 1 1 1 0 0 0 0 0 0 0 0 0 0 0 0 0 0 0 0 0 0 0 0 0 0 0 0 0 0 0 0 0 0 0 0
0 0 0 0 0 0 0 0 0 0 0 0 0 0 0 0 0 0 0 0 0 0 0 0 0 0 0 0 0 0 0 0 0 0 0 0 0 0 0 0 0 0 0
0 0 0 0 0 0 0 0 0 0 0 0 0 0 0 0 0 0 0 0 0 0 0 0 0 0 0 0 0 0 0 0 0 0 0 0 0 0 0 0 0 0 0
0 0 0 0 0 0 0 0 0 0 0 0 0 0 0 0 0 0 0 0 0 0 0 0 0 0 0 0 0 0 0 0 0 0 0 0 0 0 0 0 0 0 0
1 1 0 0 0 0 0 0 0 0 0 0 0 0 0 0 0 0 0 0 0 0 0 0 0 0 0 0 0 0 0 0 0 0 0 0 0 0 0 0 0 0 0
3 2 2 2 1 0 0 0 0 0 0 0 0 0 0 0 0 0 0 0 0 0 0 0 0 0 0 0 0 0 0 0 0 0 0 0 0 0 0 0 0 0 0
6 4 3 3 2 1 0 0 0 0 0 0 0 0 0 0 0 0 0 0 0 0 0 0 0 0 0 0 0 0 0 0 0 0 0 0 0 0 0 0 0 0 0
7 6 4 3 3 2 0 0 0 0 0 0 0 0 0 0 0 0 0 0 0 0 0 0 0 0 0 0 0 0 0 0 0 0 0 0 0 0 0 0 0 0 0
7 5 3 2 2 1 0 0 0 0 0 0 0 0 0 0 0 0 0 0 0 0 0 0 0 0 0 0 0 0 0 0 0 0 0 0 0 0 0 0 0 0 0
7 4 1 0 0 0 0 0 0 0 0 0 0 0 0 0 0 0 0 0 0 0 0 0 0 0 0 0 0 0 0 0 0 0 0 0 0 0 0 0 0 0 0
8 4 1 0 0 0 0 0 0 0 0 0 0 0 0 0 0 0 0 0 0 0 0 0 0 0 0 0 0 0 0 0 0 0 0 0 0 0 0 0 0 0 0
10 6 2 1 0 0 0 0 0 0 0 0 0 0 0 0 0 0 0 0 0 0 0 0 0 0 0 0 0 0 0 0 0 0 0 0 0 0 0 0 0 0 0
14 9 4 2 1 0 1 1 0 0 0 0 0 0 0 0 0 0 0 0 0 0 0 0 0 0 0 0 0 0 0 0 0 0 0 0 0 0 0 0 0 0 0
20 14 9 8 6 4 3 2 1 1 0 0 0 0 0 0 0 0 0 0 0 0 0 0 0 0 0 0 0 0 0 0 0 0 0 0 0 0 0 0 0 0 0
23 20 18 18 15 10 6 5 4 2 1 0 0 1 0 0 0 0 0 0 0 0 0 0 0 0 0 0 0 0 0 0 0 0 0 0 0 0 1 1 1 0 0
28 27 26 25 22 15 9 6 5 3 1 1 0 1 1 1 0 0 0 0 0 0 0 0 0 0 0 0 0 0 0 0 0 0 0 0 0 0 1 2 1 0 0
33 31 29 27 23 16 9 8 7 4 3 2 1 1 2 2 1 1 0 0 0 0 0 0 0 0 0 0 0 0 0 0 0 0 0 0 0 0 1 1 1 0 0
34 32 29 27 23 17 12 10 9 6 4 4 2 1 2 2 2 2 1 1 1 1 1 0 1 1 1 0 0 0 0 0 0 0 0 0 0 0 0 0 1 0 0
32 31 29 26 23 20 15 12 11 8 6 5 3 1 1 1 2 3 3 2 2 2 2 1 1 2 1 0 0 0 0 0 0 0 0 0 0 0 0 0 0 0 0
34 33 30 26 22 20 16 13 10 7 6 5 3 1 0 0 2 3 3 3 3 3 3 2 1 1 1 0 0 0 0 0 0 0 0 0 0 0 0 0 0 0 0
41 39 35 28 21 17 14 10 6 5 4 3 1 1 1 0 1 2 3 3 3 3 3 3 2 0 0 0 0 0 0 0 0 0 0 0 0 0 0 0 0 0 0
44 43 39 30 20 14 11 6 4 3 2 1 1 2 2 1 0 1 2 3 4 4 3 2 1 0 0 0 0 0 0 0 0 0 0 0 0 0 0 1 1 0 0
43 41 38 32 22 15 10 7 3 2 1 0 1 2 2 2 1 0 1 2 3 4 3 1 0 0 0 0 0 0 0 0 0 0 0 0 0 0 0 1 1 0 0
41 40 38 35 27 19 14 9 4 2 1 0 0 1 2 2 1 1 0 0 2 2 1 0 0 0 0 0 0 0 0 0 0 0 0 0 0 0 0 1 1 0 0
40 40 39 36 31 23 16 10 4 2 2 1 1 2 2 3 2 2 1 0 0 1 0 0 0 0 0 0 0 0 0 0 0 0 0 0 0 0 0 0 0 0 0
Wind_Speed
4 6 13 13 14 14 14 14 14 15 15 15 15 15 15 16 16 15 15 14 14 14 14 13 13 14 14 14 14 14 14 14 14 14 14 14 14 14 14 15 14 10 15
8 8 14 14 14 14 14 14 14 14 14 14 14 14 14 14 14 14 14 14 13 14 13 13 13 13 13 13 13 13 13 13 13 13 14 13 14 14 14 14 13 9 15
11 8 12 14 14 14 14 14 14 13 13 13 13 13 13 13 13 13 13 13 13 13 13 13 12 12 12 12 12 12 13 13 13 13 13 7 9 13 13 14 14 14 14
12 8 10 15 14 14 14 13 13 13 13 13 13 13 13 12 12 12 12 12 12 12 12 12 11 11 11 11 11 11 12 12 12 12 6 5 6 13 13 14 14 14 14
10 8 11 16 15 14 13 13 13 13 13 12 12 12 12 12 11 12 12 11 11 11 11 11 10 10 10 10 10 10 10 10 11 9 5 5 5 12 13 13 14 14 13
9 7 10 16 15 14 13 13 13 13 12 12 12 11 11 11 11 11 11 11 11 11 10 10 10 9 9 9 9 8 8 10 10 6 5 5 4 11 13 13 14 13 13
10 7 9 16 15 14 14 13 13 12 12 12 11 11 11 11 11 11 11 11 10 10 9 9 9 9 8 8 8 7 8 10 7 6 5 4 5 11 13 13 13 13 13
12 9 9 15 15 14 14 13 13 12 12 11 11 11 11 11 11 11 10 10 10 9 9 8 8 7 7 7 7 7 7 10 9 7 5 4 7 10 12 12 12 12 12
12 10 7 8 10 13 14 13 13 12 12 11 11 11 11 10 11 10 10 10 9 9 8 7 7 6 6 5 6 6 8 11 6 5 7 4 8 11 12 12 12 12 12
10 9 7 6 6 6 8 12 13 12 11 11 11 10 10 10 10 10 9 8 9 8 7 6 6 5 4 4 5 6 9 9 5 4 4 5 10 11 12 12 11 11 11
10 7 7 7 6 5 5 9 10 11 11 10 8 10 8 3 4 5 7 8 8 7 7 6 4 3 2 2 3 5 7 3 4 4 3 8 11 12 11 11 11 11 11
11 9 8 8 7 6 6 5 3 4 4 4 3 4 3 2 2 4 7 8 8 7 6 5 3 2 1 1 2 3 3 4 4 3 4 11 11 12 11 11 11 10 10
12 10 9 9 8 7 4 4 3 2 3 3 4 4 3 3 2 2 2 3 3 4 2 2 1 0 0 1 1 2 3 3 3 3 5 11 11 12 12 11 10 10 10
11 10 9 8 7 6 6 5 4 3 2 3 3 5 4 3 2 2 1 2 1 1 1 1 0 1 1 1 2 3 3 3 3 3 5 12 11 11 11 11 11 10 10
11 10 9 8 8 6 6 4 5 4 4 4 3 4 4 4 3 3 2 2 2 2 2 1 1 1 1 1 2 3 4 4 5 4 4 11 11 11 11 12 11 11 10
10 10 8 9 8 7 5 4 4 4 4 4 4 5 5 4 4 3 3 2 2 2 2 2 2 1 1 1 2 3 4 5 5 4 4 7 12 11 11 11 11 11 11
12 10 9 9 8 8 6 5 4 4 4 4 4 5 6 5 5 4 3 2 3 3 3 2 1 1 1 1 1 2 3 4 5 5 5 4 5 10 11 11 11 11 11
11 10 10 9 8 7 6 5 3 3 4 3 3 4 6 6 5 4 3 3 3 3 2 2 2 1 1 1 1 2 2 3 4 5 4 4 4 4 7 11 10 9 10
12 11 9 8 8 7 6 4 3 3 3 3 3 4 5 6 5 4 3 3 3 2 2 3 2 2 2 1 2 1 1 2 3 4 4 5 5 4 4 7 10 10 12
10 10 9 8 8 6 4 3 2 2 2 2 3 3 5 4 5 4 3 3 3 2 1 1 2 1 2 2 1 1 1 2 2 3 5 5 5 6 6 5 5 7 11
9 9 9 9 8 6 3 3 3 2 2 2 2 4 5 5 5 4 3 3 3 3 3 3 2 2 1 1 1 1 2 1 1 2 3 3 4 5 6 6 4 3 4
10 9 9 9 8 7 5 4 3 3 2 2 2 3 4 5 5 4 4 3 3 3 3 3 3 2 1 2 2 1 2 3 2 1 2 3 4 3 5 6 4 5 4
10 10 9 9 8 7 6 4 2 1 1 1 2 2 3 4 5 4 4 4 4 4 3 3 3 4 2 1 2 4 3 3 2 2 1 1 2 2 2 3 4 4 5
9 9 8 8 8 7 7 5 6 4 3 3 3 3 3 4 4 4 4 4 4 3 4 4 4 3 3 2 2 2 3 4 3 1 2 1 0 1 2 3 3 3 3
9 8 7 7 7 7 6 7 6 4 3 2 2 3 3 3 4 4 4 4 4 3 4 4 3 3 3 4 3 2 2 1 2 2 1 1 1 1 0 1 1 2 2
7 7 7 7 7 7 7 6 6 6 4 3 3 3 3 2 2 3 4 4 4 3 4 4 4 4 4 4 3 3 3 2 3 3 3 2 1 1 1 0 1 1 1
Wind_Direction
136 136 126 121 117 114 110 107 104 103 101 99 98 98 99 100 103 105 106 107 106 106 107 107 108 109 110 111 112 113 114 115 117 116 115 116 118 118 119 115 112 110 113
141 136 127 123 121 117 113 110 108 106 104 103 102 101 101 103 104 106 107 107 107 107 107 107 107 109 110 112 114 116 116 117 115 113 114 118 119 118 119 118 117 118 117
131 130 127 125 123 120 117 115 112 110 108 106 106 105 105 106 107 107 108 108 107 107 107 109 110 110 111 113 114 116 118 117 115 112 109 104 113 116 117 119 120 119 118
132 130 129 127 125 124 122 120 118 115 112 111 109 109 108 109 110 111 111 111 110 110 110 110 111 111 113 114 115 116 118 117 117 115 105 106 114 117 116 118 120 119 118
128 129 135 130 128 127 126 125 122 120 118 117 115 113 113 114 114 114 114 114 113 113 113 112 112 112 113 114 114 114 115 119 116 109 101 98 105 120 120 121 121 121 121
128 131 138 134 132 131 129 128 127 125 123 120 118 117 117 118 118 118 119 119 118 115 114 114 113 112 112 112 114 113 113 115 110 104 102 105 112 125 126 125 124 124 124
133 134 138 136 135 134 133 132 130 128 126 124 122 122 121 120 119 120 121 122 122 121 118 115 113 111 109 109 110 107 112 120 115 111 107 107 121 130 128 127 126 126 127
139 139 139 140 139 138 138 136 134 133 131 130 128 126 123 121 121 122 125 125 125 125 123 119 115 112 108 108 104 106 114 126 122 121 115 117 131 132 131 129 129 130 132
141 141 141 144 144 144 142 140 139 138 137 135 132 130 129 127 127 127 130 131 131 131 129 127 123 117 110 106 106 106 118 125 119 127 132 132 137 136 136 136 135 134 135
143 146 146 143 141 142 144 145 145 144 143 140 139 138 138 136 135 133 135 137 137 137 136 136 132 125 117 110 108 106 118 119 119 125 129 144 145 143 142 143 142 139 138
151 154 152 149 147 145 150 154 150 149 150 147 145 146 138 122 124 132 145 147 145 145 146 145 142 137 119 94 107 109 111 118 124 129 140 151 151 150 149 148 148 147 147
162 167 165 161 161 162 162 143 143 149 148 143 144 142 132 140 152 149 157 155 152 152 154 157 159 154 93 56 71 91 106 122 126 141 157 158 157 156 152 152 154 155 152
164 167 168 168 168 169 154 152 157 152 150 159 163 159 148 146 147 139 140 148 147 150 143 159 149 341 252 149 112 120 127 127 138 150 162 163 162 161 159 159 159 159 157
157 164 162 163 167 166 157 162 164 160 165 172 176 164 151 147 148 151 152 155 151 147 163 171 228 285 271 185 145 148 144 138 147 150 170 169 168 167 166 166 166 165 162
156 160 161 158 159 158 157 168 165 168 171 173 169 170 162 156 161 162 166 174 177 174 174 185 225 245 212 178 174 165 156 150 156 160 167 174 174 175 175 173 172 172 171
159 159 156 159 158 153 154 161 166 171 171 168 170 172 165 160 161 165 171 177 189 187 182 182 198 196 186 171 177 168 162 157 164 166 169 180 183 181 182 181 180 181 180
160 157 158 161 155 152 156 162 164 169 165 169 173 173 165 161 162 160 165 178 196 193 183 175 184 154 169 158 173 173 164 168 169 175 177 181 186 190 189 189 189 189 190
157 158 164 162 156 157 159 155 156 159 162 170 168 165 164 166 164 159 168 190 196 184 170 164 162 141 158 157 187 194 178 174 173 181 182 184 187 193 198 198 196 196 200
162 161 163 157 160 162 157 144 137 149 158 170 163 160 168 170 170 166 178 189 179 166 173 182 157 158 180 192 201 203 194 179 181 185 189 194 193 189 190 201 201 204 208
160 159 159 159 163 157 140 121 108 131 157 170 167 171 169 170 173 170 178 186 170 153 168 174 164 170 181 188 210 230 245 212 194 193 198 195 196 197 196 203 205 213 215
159 160 162 162 168 156 148 145 141 168 178 177 182 184 175 172 174 174 178 175 170 164 180 176 162 170 205 159 88 352 331 318 222 206 202 192 200 202 194 201 199 201 219
166 167 163 167 170 169 168 160 161 168 179 181 178 187 187 178 182 181 175 180 180 172 183 184 167 160 215 165 141 118 341 337 331 247 198 194 206 202 200 199 200 201 210
170 173 172 170 170 173 167 147 139 110 95 136 181 198 206 195 193 191 184 180 184 180 190 196 179 171 195 219 170 154 163 222 286 318 273 211 182 182 197 187 196 200 203
177 172 166 166 168 171 166 162 169 175 185 194 186 194 210 207 199 197 191 186 185 186 193 202 189 180 173 203 219 198 182 167 167 272 335 348 190 179 188 189 189 194 199
172 168 168 162 167 170 171 171 176 183 184 174 168 188 208 217 206 201 193 192 194 196 201 204 193 192 187 191 197 198 194 182 167 162 227 310 353 335 192 190 168 179 194
164 164 165 165 170 172 172 173 179 181 179 174 183 193 205 212 212 209 201 194 193 199 206 204 201 198 201 196 195 187 177 176 188 177 193 210 224 297 33 112 162 175 177